This is the latest recevied weather packets stored in our database for station/object AJ7DN. If no packets are shown the sender has not sent any weather packets the latest 10 day(s).
| Time | Temp. | Humidity | Pressure | Rain* | Wind** | Luminosity | Snow |
|---|---|---|---|---|---|---|---|
| 1777068075 | 20.56° C | 28% | 1019.6 hPa | 0 mm | - | 538 W/m² | - |
| 1777067775 | 20.56° C | 24% | 1019.8 hPa | 0 mm | - | 572 W/m² | - |
| 1777067474 | 20.56° C | 24% | 1019.6 hPa | 0 mm | - | 621 W/m² | - |
| 1777067172 | 21.11° C | 25% | 1019.8 hPa | 0 mm | - | 643 W/m² | - |
| 1777066869 | 20.56° C | 27% | 1020 hPa | 0 mm | - | 632 W/m² | - |
| 1777066569 | 21.11° C | 26% | 1020.2 hPa | 0 mm | - | 615 W/m² | - |
| 1777066265 | 21.11° C | 27% | 1020 hPa | 0 mm | - | 610 W/m² | - |
| 1777065964 | 20.56° C | 25% | 1020.1 hPa | 0 mm | - | 626 W/m² | - |
| 1777065660 | 20.56° C | 25% | 1020.1 hPa | 0 mm | - | 660 W/m² | - |
| 1777065360 | 20.56° C | 28% | 1020.2 hPa | 0 mm | - | 671 W/m² | - |
| 1777065055 | 20.56° C | 27% | 1020.2 hPa | 0 mm | - | 669 W/m² | - |
| 1777064753 | 20.56° C | 26% | 1020.2 hPa | 0 mm | - | 659 W/m² | - |
| 1777064449 | 21.11° C | 27% | 1020.2 hPa | 0 mm | - | 667 W/m² | - |
| 1777064145 | 20° C | 26% | 1020.3 hPa | 0 mm | - | 671 W/m² | - |
| 1777063840 | 20° C | 28% | 1020.3 hPa | 0 mm | - | 675 W/m² | - |
| 1777063536 | 20° C | 29% | 1020.6 hPa | 0 mm | - | 664 W/m² | - |
| 1777063231 | 20° C | 26% | 1020.4 hPa | 0 mm | - | 674 W/m² | - |
| 1777062928 | 20° C | 27% | 1020.4 hPa | 0 mm | - | 691 W/m² | - |
| 1777062626 | 20° C | 27% | 1020.5 hPa | 0 mm | - | 696 W/m² | - |
| 1777062323 | 20° C | 29% | 1020.4 hPa | 0 mm | - | 708 W/m² | - |
| 1777062020 | 20.56° C | 27% | 1020.5 hPa | 0 mm | - | 712 W/m² | - |
| 1777061717 | 20.56° C | 30% | 1020.6 hPa | 0 mm | - | 722 W/m² | - |
| 1777061413 | 20° C | 28% | 1020.8 hPa | 0 mm | - | 729 W/m² | - |
| 1777061114 | 19.44° C | 29% | 1020.7 hPa | 0 mm | - | 742 W/m² | - |
| 1777060809 | 20° C | 29% | 1020.9 hPa | 0 mm | - | 732 W/m² | - |
* Rain latest hour (hover to see other rain measurements)
** Current wind speed in m/s (hover to see current wind gust speed)